Tracking 25710 objects as of 5-Jul-2022
HD Live streaming from Space Station
objects crossing your sky now

STARLINK-3864

Track STARLINK-3864 now!
10-day predictions
STARLINK-3864 is classified as:


NORAD ID: 52468
Int'l Code: 2022-049T
Perigee: 439.1 km
Apogee: 441.4 km
Inclination: 53.2 °
Period: 93.2 minutes
Semi major axis: 6811 km
RCS: Unknown
Launch date: May 6, 2022
Source: United States (US)
Launch site: AIR FORCE EASTERN TEST RANGE (AFETR)
aabbcc
Your satellite tracking list
Your tracking list is empty




NASA's NSSDC Master Catalog

Two Line Element Set (TLE):
1 52468U 22049T   22185.91667824 -.01053954  00000-0 -24747-1 0  9997
2 52468  53.2172 333.5320 0001643  43.2084 104.0747 15.44410799  1302
Source of the keplerian elements: AFSPC